Location: Maiden
(35.5760°N, 81.2120°W)
Time: 05:26:45
(UTC-04:00)

ATLAS 2AS CENTAUR R/B - Pass Details

Date: 14 June 2018
Orbit: 914 x 1298 km, 63.7° (Epoch: 20 October)

Event Time Altitude Azimuth Distance (km) Brightness Sun altitude
Exits shadow 23:44:28 40° 202° (SSW) 1,730 3.4 -26.5°
Maximum altitude 23:47:38 83° 118° (ESE) 1,271 2.9 -26.7°
Drops below altitude 10° 23:55:44 10° 33° (NNE) 3,307 5.6 -27.4°
Sets 23:58:36 0° 33° (NNE) 4,286 6.3 -27.6°
